TimeCST,TemperatureF,Dew PointF,Humidity,Sea Level PressureIn,VisibilityMPH,Wind Direction,Wind SpeedMPH,Gust SpeedMPH,PrecipitationIn,Events,Conditions,WindDirDegrees,DateUTC
12:53 AM,42.1,42.1,100,30.29,2.0,SSW,12.7,-,N/A,,Overcast,200,2011-11-24 06:53:00
1:45 AM,42.8,41.0,93,30.28,3.0,SSW,12.7,-,N/A,,Overcast,210,2011-11-24 07:45:00
1:53 AM,42.1,41.0,96,30.29,3.0,SW,12.7,-,N/A,,Overcast,220,2011-11-24 07:53:00
2:53 AM,42.1,41.0,96,30.29,3.0,SSW,13.8,-,N/A,,Overcast,200,2011-11-24 08:53:00
3:10 AM,42.8,41.0,93,30.28,2.5,SW,11.5,-,N/A,,Overcast,220,2011-11-24 09:10:00
3:34 AM,42.8,41.0,93,30.27,1.5,SSW,10.4,-,N/A,,Overcast,210,2011-11-24 09:34:00
3:49 AM,42.8,41.0,93,30.28,2.0,SSW,10.4,-,N/A,,Overcast,210,2011-11-24 09:49:00
3:53 AM,42.1,41.0,96,30.29,2.0,SSW,10.4,-,N/A,,Overcast,200,2011-11-24 09:53:00
4:26 AM,42.8,39.2,87,30.28,3.0,SW,12.7,-,N/A,,Overcast,220,2011-11-24 10:26:00
4:43 AM,42.8,41.0,93,30.28,2.5,SSW,10.4,-,N/A,,Overcast,200,2011-11-24 10:43:00
4:53 AM,41.0,41.0,100,30.30,2.0,SW,9.2,-,N/A,,Overcast,220,2011-11-24 10:53:00
5:32 AM,41.0,39.2,93,30.28,3.0,SW,12.7,-,N/A,,Overcast,230,2011-11-24 11:32:00
5:53 AM,41.0,39.9,96,30.30,3.0,SW,12.7,-,N/A,,Overcast,220,2011-11-24 11:53:00
6:43 AM,41.0,39.2,93,30.29,2.0,SSW,10.4,-,N/A,,Overcast,200,2011-11-24 12:43:00
6:53 AM,41.0,39.9,96,30.31,2.0,SSW,15.0,18.4,N/A,,Overcast,200,2011-11-24 12:53:00
7:28 AM,41.0,39.2,93,30.30,1.5,South,11.5,-,N/A,,Overcast,190,2011-11-24 13:28:00
7:40 AM,41.0,39.2,93,30.30,2.0,South,12.7,-,N/A,,Overcast,190,2011-11-24 13:40:00
7:53 AM,41.0,39.9,96,30.32,2.0,SSW,13.8,-,N/A,,Overcast,210,2011-11-24 13:53:00
8:53 AM,41.0,39.9,96,30.32,2.0,South,15.0,-,N/A,,Overcast,190,2011-11-24 14:53:00
9:42 AM,42.8,41.0,93,30.30,4.0,South,15.0,-,N/A,,Overcast,180,2011-11-24 15:42:00
9:53 AM,42.1,39.9,92,30.32,4.0,South,17.3,-,N/A,,Overcast,190,2011-11-24 15:53:00
10:53 AM,43.0,41.0,93,30.30,6.0,SSW,16.1,-,N/A,,Overcast,200,2011-11-24 16:53:00
11:53 AM,44.1,41.0,89,30.27,6.0,South,17.3,-,N/A,,Overcast,180,2011-11-24 17:53:00
12:20 PM,44.6,41.0,87,30.26,6.0,South,16.1,-,N/A,,Overcast,190,2011-11-24 18:20:00
12:53 PM,45.0,42.1,90,30.27,7.0,South,16.1,-,N/A,,Overcast,190,2011-11-24 18:53:00
1:53 PM,46.9,42.1,83,30.25,9.0,SSW,17.3,-,N/A,,Mostly Cloudy,200,2011-11-24 19:53:00
2:53 PM,46.9,42.1,83,30.23,8.0,South,15.0,-,N/A,,Mostly Cloudy,190,2011-11-24 20:53:00
3:44 PM,46.4,42.8,87,30.22,7.0,South,17.3,-,N/A,,Scattered Clouds,170,2011-11-24 21:44:00
3:53 PM,45.0,42.1,90,30.23,7.0,South,15.0,19.6,N/A,,Mostly Cloudy,170,2011-11-24 21:53:00
4:03 PM,44.6,41.0,87,30.21,7.0,South,15.0,23.0,N/A,,Scattered Clouds,180,2011-11-24 22:03:00
4:53 PM,43.0,41.0,93,30.22,6.0,South,11.5,-,N/A,,Partly Cloudy,170,2011-11-24 22:53:00
5:53 PM,43.0,39.9,89,30.23,6.0,South,15.0,-,N/A,,Clear,170,2011-11-24 23:53:00
6:53 PM,42.1,39.9,92,30.22,6.0,South,16.1,24.2,N/A,,Partly Cloudy,170,2011-11-25 00:53:00
7:12 PM,42.8,39.2,87,30.20,5.0,South,17.3,-,N/A,,Mostly Cloudy,170,2011-11-25 01:12:00
7:27 PM,42.8,39.2,87,30.19,5.0,South,15.0,-,N/A,,Scattered Clouds,170,2011-11-25 01:27:00
7:39 PM,42.8,39.2,87,30.19,5.0,South,16.1,-,N/A,,Mostly Cloudy,170,2011-11-25 01:39:00
7:53 PM,43.0,41.0,93,30.20,5.0,South,18.4,-,N/A,,Overcast,170,2011-11-25 01:53:00
8:03 PM,42.8,41.0,93,30.18,5.0,South,17.3,25.3,N/A,,Overcast,180,2011-11-25 02:03:00
8:53 PM,43.0,41.0,93,30.20,4.0,South,17.3,-,N/A,,Overcast,180,2011-11-25 02:53:00
9:53 PM,42.1,41.0,96,30.18,4.0,South,17.3,25.3,N/A,,Overcast,180,2011-11-25 03:53:00
10:53 PM,42.1,39.9,92,30.18,5.0,South,12.7,-,N/A,,Overcast,180,2011-11-25 04:53:00
11:53 PM,42.1,39.9,92,30.17,4.0,South,15.0,-,N/A,,Overcast,170,2011-11-25 05:53:00